AB0R Weather Reports


time (UTC)temp
C
wind
direction
speed
KPH
gust
KPH
rain 1hr
cm
rain 24hr
cm
rain mn
cm
humidity
%
barometer
mb
20260906171426 25 136 3.2 9.7 0.00 0.00 0.00 78
20260906164426 24 126 3.2 14.5 0.00 0.00 0.00 78
20260906163426 23 119 4.8 9.7 0.00 0.00 0.00 79
20260906160426 23 144 4.8 9.7 0.00 0.00 0.00 82
20260906155426 22 148 4.8 12.9 0.00 0.00 0.00 83
20260906154426 22 140 6.4 12.9 0.00 0.00 0.00 83
20260906153426 22 132 4.8 11.3 0.00 0.00 0.00 84
20260906152427 22 140 4.8 11.3 0.00 0.00 0.00 85
20260906150427 21 154 3.2 9.7 0.00 0.00 0.00 87
20260906144426 21 148 3.2 9.7 0.00 0.00 0.00 88
20260906143426 21 158 3.2 8.0 0.00 0.00 0.00 90
20260906142426 21 132 3.2 8.0 0.00 0.00 0.00 90
20260906141426 21 138 3.2 8.0 0.00 0.00 0.00 90
20260906135426 21 126 3.2 8.0 0.00 0.00 0.00 92
20260906130459 20 126 1.6 4.8 0.00 0.00 0.00 94
20260906130427 20 126 1.6 4.8 0.00 0.00 0.00 94
20260906125426 20 111 1.6 4.8 0.00 0.00 0.00 94
20260906121426 19 82 0.0 0.0 0.00 0.00 0.00 95
20260906120517 19 82 0.0 0.0 0.00 0.00 0.00 95
20260906120426 19 82 0.0 0.0 0.00 0.00 0.00 95
20260906105427 20 82 0.0 0.0 0.00 0.00 0.00 93
20260906104515 20 82 0.0 0.0 0.00 0.00 0.00 93
20260906104428 20 82 0.0 0.0 0.00 0.00 0.00 93
20260906103459 20 82 0.0 0.0 0.00 0.00 0.00 92
20260906103427 20 82 0.0 0.0 0.00 0.00 0.00 92
20260906101426 20 82 0.0 0.0 0.00 0.00 0.00 93
20260906100426 20 82 0.0 0.0 0.00 0.00 0.00 93
20260906094426 20 80 0.0 3.2 0.00 0.00 0.00 92
20260906090429 20 80 0.0 0.0 0.00 0.00 0.00 91
20260906085437 20 82 0.0 0.0 0.00 0.00 0.00 92
20260906081426 20 84 0.0 3.2 0.00 0.00 0.00 91
20260906080426 20 84 0.0 3.2 0.00 0.00 0.00 91
20260906075426 21 84 0.0 0.0 0.00 0.00 0.00 91
20260906074512 21 84 0.0 0.0 0.00 0.00 0.00 90
20260906074426 21 84 0.0 0.0 0.00 0.00 0.00 90
20260906070427 21 84 0.0 0.0 0.00 0.00 0.00 89
20260906064426 21 84 0.0 3.2 0.00 0.00 0.00 89
20260906063427 21 84 0.0 3.2 0.00 0.00 0.00 88
20260906062428 21 80 0.0 0.0 0.00 0.00 0.00 88
20260906061426 21 79 0.0 0.0 0.00 0.00 0.00 87
20260906055426 22 80 0.0 0.0 0.00 0.00 0.00 86
20260906054426 22 80 0.0 3.2 0.00 0.00 0.00 86
20260906051426 22 136 0.0 0.0 0.00 0.00 0.00 86
20260906050426 22 123 0.0 0.0 0.00 0.00 0.00 87
20260906043426 22 117 0.0 0.0 0.00 0.00 0.00 86
20260906042426 22 117 0.0 0.0 0.00 0.00 0.00 86
20260906035426 22 117 0.0 0.0 0.00 0.00 0.00 84
20260906033426 22 117 0.0 0.0 0.00 0.00 0.00 83
20260906032457 22 117 0.0 0.0 0.00 0.00 0.00 82
20260906032426 22 117 0.0 0.0 0.00 0.00 0.00 82
20260906031426 23 117 0.0 0.0 0.00 0.00 0.00 82
20260906030426 23 117 0.0 0.0 0.00 0.00 0.00 80
20260906025426 23 117 0.0 0.0 0.00 0.00 0.00 79
20260906023426 24 154 0.0 3.2 0.00 0.00 0.00 77
20260906022426 24 159 0.0 4.8 0.00 0.00 0.00 76
20260906021427 24 175 1.6 4.8 0.00 0.00 0.00 76
20260906020427 24 164 1.6 6.4 0.00 0.00 0.00 76
20260906015426 24 152 0.0 4.8 0.00 0.00 0.00 76
20260906014426 25 139 1.6 8.0 0.00 0.00 0.00 75
20260906013800 25 145 1.6 8.0 0.00 0.00 0.00 75
20260906013715 25 145 1.6 8.0 0.00 0.00 0.00 75
20260906013458 25 145 1.6 8.0 0.00 0.00 0.00 75
20260906013448 25 145 1.6 8.0 0.00 0.00 0.00 75
20260906013426 25 145 1.6 8.0 0.00 0.00 0.00 75
20260906011426 25 141 0.0 3.2 0.00 0.00 0.00 73
20260906005426 25 81 0.0 4.8 0.00 0.00 0.00 71
20260906004517 26 82 1.6 8.0 0.00 0.00 0.00 70
20260906004429 26 82 1.6 8.0 0.00 0.00 0.00 70
20260905234427 27 81 3.2 17.7 0.00 0.00 0.00 66
20260905233426 27 92 3.2 17.7 0.00 0.00 0.00 66
20260905232427 28 81 3.2 14.5 0.00 0.00 0.00 61
20260905225426 28 88 3.2 12.9 0.00 0.00 0.00 60
20260905223426 28 83 4.8 11.3 0.00 0.00 0.00 62
20260905222426 28 81 4.8 11.3 0.00 0.00 0.00 62
20260905214427 28 80 3.2 14.5 0.00 0.00 0.00 64
20260905212426 28 76 4.8 14.5 0.00 0.00 0.00 63
20260905211428 28 71 3.2 12.9 0.00 0.00 0.00 64
20260905210426 28 64 4.8 12.9 0.00 0.00 0.00 61
20260905203427 28 62 1.6 8.0 0.00 0.00 0.00 65
20260905195426 27 63 3.2 8.0 0.00 0.00 0.00 68
20260905194427 27 92 1.6 12.9 0.00 0.00 0.00 68
20260905191426 27 351 1.6 8.0 0.00 0.00 0.00 70
20260905190426 27 97 1.6 6.4 0.00 0.00 0.00 70
20260905185432 27 33 1.6 6.4 0.00 0.00 0.00 71
20260905184427 26 173 1.6 6.4 0.00 0.00 0.00 73
20260905181426 25 165 1.6 6.4 0.00 0.00 0.00 77
20260905180428 25 181 1.6 8.0 0.00 0.00 0.00 78
20260905175426 25 151 3.2 8.0 0.00 0.00 0.00 79